Location: Ellerstadt
(49.4644°N, 8.2615°E)
Time: 01:30:39
(UTC+00:00)

A-11 Canister half - All Passes

Search period start: 13 June 2021 00:00
Search period end: 23 June 2021 00:00
Orbit: 1527 x 1681 km, 47.3° (Epoch: 12 June)

Date Brightness Start Highest point End Pass type
(mag) Time Alt. Az. Time Alt. Az. Time Alt. Az.
13 Jun - 00:04:42 10° SW 00:13:25 47° SSE 00:22:08 10° ENE visible
13 Jun - 02:08:27 10° WSW 02:17:44 76° S 02:27:07 10° E visible
13 Jun - 04:13:15 10° W 04:22:31 72° SSW 04:31:57 10° ESE daylight
13 Jun - 06:18:13 10° WNW 06:26:40 40° SW 06:35:18 10° SSE daylight
13 Jun - 08:26:26 10° WSW 08:29:34 12° WSW 08:32:44 10° SW daylight
13 Jun - 21:43:59 10° SSE 21:48:47 15° SE 21:53:33 10° E visible
13 Jun - 23:43:09 10° SW 23:51:49 45° SE 00:00:29 10° ENE visible
14 Jun - 01:46:49 10° WSW 01:56:05 76° S 02:05:27 10° E visible
14 Jun - 03:51:36 10° W 04:00:53 73° SSW 04:10:18 10° ESE daylight
14 Jun - 05:56:33 10° WNW 06:05:04 41° SW 06:13:46 10° SSE daylight
14 Jun - 08:04:17 10° W 08:08:02 13° SW 08:11:49 10° SSW daylight
14 Jun - 21:22:52 10° SSE 21:27:14 14° SE 21:31:35 10° E visible
14 Jun - 23:21:37 10° SSW 23:30:14 43° SE 23:38:48 10° ENE visible
15 Jun - 01:25:10 10° WSW 01:34:27 75° SSE 01:43:48 10° E visible
15 Jun - 03:29:58 10° W 03:39:14 74° SSW 03:48:39 10° ESE daylight
15 Jun - 05:34:54 10° WNW 05:43:28 43° SW 05:52:13 10° SSE daylight
15 Jun - 07:42:14 10° W 07:46:29 14° SW 07:50:47 10° SSW daylight
15 Jun - 21:01:49 10° SSE 21:05:42 13° SE 21:09:34 10° E visible
15 Jun - 23:00:05 10° SSW 23:08:38 42° SE 23:17:09 10° ENE visible
16 Jun - 01:03:32 10° WSW 01:12:49 74° SSE 01:22:08 10° E visible
16 Jun - 03:08:19 10° W 03:17:36 75° SSW 03:27:00 10° ESE daylight
16 Jun - 05:13:15 10° WNW 05:21:52 44° SW 05:30:40 10° SSE daylight
16 Jun - 07:20:16 10° W 07:24:56 15° SW 07:29:40 10° SSW daylight
16 Jun - 20:40:52 10° SE 20:44:10 12° SE 20:47:27 10° ESE visible
16 Jun - 22:38:33 10° SSW 22:47:03 40° SE 22:55:28 10° ENE visible
17 Jun - 00:41:54 10° WSW 00:51:11 73° SSE 01:00:29 10° E visible
17 Jun - 02:46:40 10° W 02:55:58 76° S 03:05:21 10° ESE daylight
17 Jun - 04:51:35 10° WNW 05:00:16 46° SSW 05:09:07 10° SE daylight
17 Jun - 06:58:20 10° W 07:03:24 16° SW 07:08:30 10° SSW daylight
17 Jun - 20:20:06 10° SE 20:22:38 11° ESE 20:25:09 10° ESE visible
17 Jun - 22:17:02 10° SSW 22:25:27 39° SE 22:33:48 10° ENE visible
18 Jun - 00:20:16 10° WSW 00:29:33 72° SSE 00:38:49 10° E visible
18 Jun - 02:25:01 10° W 02:34:19 77° S 02:43:42 10° ESE visible
18 Jun - 04:29:55 10° WNW 04:38:40 47° SSW 04:47:33 10° SE daylight
18 Jun - 06:36:27 10° W 06:41:50 17° SW 06:47:18 10° SSW daylight
18 Jun - 19:59:46 10° SE 20:01:06 10° ESE 20:02:27 10° ESE daylight
18 Jun - 21:55:31 10° SSW 22:03:52 37° SE 22:12:08 10° E visible
18 Jun - 23:58:39 10° WSW 00:07:55 71° SSE 00:17:10 10° E visible
19 Jun - 02:03:22 10° W 02:12:41 77° S 02:22:03 10° ESE visible
19 Jun - 04:08:17 10° WNW 04:17:04 49° SSW 04:26:00 10° SE daylight
19 Jun - 06:14:36 10° W 06:20:18 18° SW 06:26:03 10° SSW daylight
19 Jun - 21:34:01 10° SSW 21:42:17 36° SE 21:50:27 10° E visible
19 Jun - 23:37:00 10° WSW 23:46:18 69° SSE 23:55:31 10° E visible
20 Jun - 01:41:43 10° W 01:51:02 78° S 02:00:24 10° ESE visible
20 Jun - 03:46:37 10° WNW 03:55:28 50° SSW 04:04:25 10° SE daylight
20 Jun - 05:52:47 10° W 05:58:45 19° SW 06:04:47 10° S daylight
20 Jun - 21:12:31 10° SSW 21:20:43 35° SE 21:28:46 10° E visible
20 Jun - 23:15:23 10° WSW 23:24:39 68° SSE 23:33:52 10° E visible
21 Jun - 01:20:04 10° W 01:29:24 78° S 01:38:45 10° ESE visible
21 Jun - 03:24:58 10° WNW 03:33:51 52° SSW 03:42:50 10° SE daylight
21 Jun - 05:30:59 10° W 05:37:12 20° SW 05:43:29 10° S daylight
21 Jun - 20:51:02 10° SSW 20:59:08 33° SE 21:07:05 10° E visible
21 Jun - 22:53:45 10° WSW 23:03:02 67° SSE 23:12:13 10° E visible
22 Jun - 00:58:25 10° W 01:07:45 79° S 01:17:06 10° E visible
22 Jun - 03:03:19 10° WNW 03:12:15 53° SSW 03:21:16 10° SE daylight
22 Jun - 05:09:12 10° W 05:15:38 21° SW 05:22:09 10° S daylight
22 Jun - 20:29:33 10° SSW 20:37:33 32° SE 20:45:24 10° E visible
22 Jun - 22:32:07 10° WSW 22:41:24 66° SSE 22:50:35 10° E visible
